Location: Dehesa de la Cepeda
(40.6574°N, 4.3013°W)
Time: 20:40:17
(UTC+00:00)

Vanguard 2 Rocket - Pass Details

Date: 13 August 2021
Orbit: 556 x 3324 km, 32.9° (Epoch: 19 September)

Event Time Altitude Azimuth Distance (km) Brightness Sun altitude
Rises 00:22:10 0° 199° (SSW) 6,720 - -34.7°
Reaches altitude 10° 00:29:55 10° 180° (S) 5,135 - -34.7°
Maximum altitude 00:36:30 15° 152° (SSE) 4,136 - -34.6°
Drops below altitude 10° 00:41:47 10° 123° (ESE) 3,963 - -34.5°
Exits shadow 00:44:02 - 111° (ESE) 4,126 10.1 -34.5°
Sets 00:46:18 0° 100° (E) 4,427 10.4 -34.4°
